contact:dominique.lefevre@mio.osupytheas.fr, maurice.libes@osupytheas.fr, didier.mallarino@osupytheas.fr
Project:EMSO http://www.emso-fr.org/EMSO-France
Depth: 2436.0 m
Title:EMSO Ligure Ouest : Data MII capteur OXYGEN
DateTime,Latitude,Longitude,Optode-Type,Optode_Serial,Oxygen,Saturation_Oxygen,Temperature
DateTime,Latitude,Longitude,Optode-Type,Optode_Serial,µmol.l-1,%,degC
2017-11-28T00:00:55,42.805,6.029,4330,1995,195.743,59.860,13.287
2017-11-28T00:03:55,42.805,6.029,4330,1995,195.634,59.830,13.289
2017-11-28T00:06:55,42.805,6.029,4330,1995,195.722,59.853,13.287
2017-11-28T00:09:55,42.805,6.029,4330,1995,195.696,59.845,13.287
2017-11-28T00:12:55,42.805,6.029,4330,1995,195.809,59.879,13.287
2017-11-28T00:15:55,42.805,6.029,4330,1995,195.836,59.888,13.287
2017-11-28T00:18:55,42.805,6.029,4330,1995,195.692,59.844,13.287
2017-11-28T00:21:55,42.805,6.029,4330,1995,195.679,59.843,13.289
2017-11-28T00:24:55,42.805,6.029,4330,1995,195.743,59.861,13.288
2017-11-28T00:27:55,42.805,6.029,4330,1995,195.748,59.862,13.288
2017-11-28T00:30:55,42.805,6.029,4330,1995,195.716,59.854,13.289
2017-11-28T00:33:55,42.805,6.029,4330,1995,195.546,59.800,13.288
2017-11-28T00:36:55,42.805,6.029,4330,1995,195.434,59.769,13.290
2017-11-28T00:39:55,42.805,6.029,4330,1995,195.568,59.808,13.288
2017-11-28T00:42:55,42.805,6.029,4330,1995,195.489,59.782,13.287
2017-11-28T00:45:55,42.805,6.029,4330,1995,195.639,59.829,13.288
2017-11-28T00:48:55,42.805,6.029,4330,1995,195.831,59.887,13.287
2017-11-28T00:51:55,42.805,6.029,4330,1995,195.941,59.922,13.288
2017-11-28T00:54:55,42.805,6.029,4330,1995,195.916,59.915,13.289
2017-11-28T00:57:55,42.805,6.029,4330,1995,195.860,59.897,13.288
2017-11-28T01:00:55,42.805,6.029,4330,1995,195.793,59.877,13.288
2017-11-28T01:03:55,42.805,6.029,4330,1995,195.854,59.895,13.288
2017-11-28T01:06:55,42.805,6.029,4330,1995,195.761,59.868,13.289
2017-11-28T01:09:55,42.805,6.029,4330,1995,195.485,59.781,13.287
2017-11-28T01:12:55,42.805,6.029,4330,1995,195.464,59.778,13.290
2017-11-28T01:15:55,42.805,6.029,4330,1995,195.623,59.824,13.288
2017-11-28T01:18:55,42.805,6.029,4330,1995,195.664,59.836,13.288
2017-11-28T01:21:55,42.805,6.029,4330,1995,195.427,59.768,13.291
2017-11-28T01:24:55,42.805,6.029,4330,1995,195.325,59.733,13.288
2017-11-28T01:27:55,42.805,6.029,4330,1995,195.440,59.768,13.288
2017-11-28T01:30:55,42.805,6.029,4330,1995,195.446,59.772,13.289
2017-11-28T01:33:55,42.805,6.029,4330,1995,195.494,59.787,13.290
2017-11-28T01:36:55,42.805,6.029,4330,1995,195.540,59.799,13.288
2017-11-28T01:39:55,42.805,6.029,4330,1995,195.635,59.827,13.288
2017-11-28T01:42:55,42.805,6.029,4330,1995,195.770,59.869,13.288
2017-11-28T01:45:55,42.805,6.029,4330,1995,195.635,59.829,13.289
2017-11-28T01:48:55,42.805,6.029,4330,1995,195.671,59.839,13.288
2017-11-28T01:51:55,42.805,6.029,4330,1995,195.494,59.786,13.289
2017-11-28T01:54:55,42.805,6.029,4330,1995,195.442,59.769,13.288
2017-11-28T01:57:55,42.805,6.029,4330,1995,195.506,59.788,13.288
2017-11-28T02:00:55,42.805,6.029,4330,1995,195.570,59.810,13.290
2017-11-28T02:03:55,42.805,6.029,4330,1995,195.399,59.756,13.288
2017-11-28T02:06:55,42.805,6.029,4330,1995,195.287,59.721,13.287
2017-11-28T02:09:55,42.805,6.029,4330,1995,195.410,59.763,13.291
2017-11-28T02:12:55,42.805,6.029,4330,1995,195.633,59.828,13.288
2017-11-28T02:15:55,42.805,6.029,4330,1995,195.688,59.844,13.288
2017-11-28T02:18:55,42.805,6.029,4330,1995,195.658,59.835,13.288
2017-11-28T02:21:55,42.805,6.029,4330,1995,195.335,59.738,13.289
2017-11-28T02:24:55,42.805,6.029,4330,1995,195.267,59.715,13.287
2017-11-28T02:27:55,42.805,6.029,4330,1995,195.344,59.741,13.290
2017-11-28T02:30:55,42.805,6.029,4330,1995,195.365,59.746,13.288
2017-11-28T02:33:55,42.805,6.029,4330,1995,195.241,59.707,13.287
2017-11-28T02:36:55,42.805,6.029,4330,1995,195.292,59.725,13.290
2017-11-28T02:39:55,42.805,6.029,4330,1995,195.213,59.701,13.289
2017-11-28T02:42:55,42.805,6.029,4330,1995,194.877,59.598,13.289
2017-11-28T02:45:55,42.805,6.029,4330,1995,194.597,59.511,13.289
2017-11-28T02:48:55,42.805,6.029,4330,1995,194.669,59.535,13.290
2017-11-28T02:51:55,42.805,6.029,4330,1995,194.837,59.587,13.290
2017-11-28T02:54:55,42.805,6.029,4330,1995,194.952,59.623,13.291
2017-11-28T02:57:55,42.805,6.029,4330,1995,194.833,59.584,13.289
2017-11-28T03:00:55,42.805,6.029,4330,1995,194.612,59.515,13.288
2017-11-28T03:03:55,42.805,6.029,4330,1995,194.516,59.489,13.290
2017-11-28T03:06:55,42.805,6.029,4330,1995,194.571,59.504,13.289
2017-11-28T03:09:55,42.805,6.029,4330,1995,194.766,59.567,13.291
2017-11-28T03:12:55,42.805,6.029,4330,1995,194.736,59.556,13.290
2017-11-28T03:15:55,42.805,6.029,4330,1995,194.861,59.594,13.290
2017-11-28T03:18:55,42.805,6.029,4330,1995,194.800,59.573,13.288
2017-11-28T03:21:55,42.805,6.029,4330,1995,194.868,59.593,13.288
2017-11-28T03:24:55,42.805,6.029,4330,1995,194.931,59.614,13.289
2017-11-28T03:27:55,42.805,6.029,4330,1995,194.789,59.570,13.289
2017-11-28T03:30:55,42.805,6.029,4330,1995,194.688,59.540,13.289
2017-11-28T03:33:55,42.805,6.029,4330,1995,194.619,59.519,13.289
2017-11-28T03:36:55,42.805,6.029,4330,1995,194.475,59.477,13.291
2017-11-28T03:39:55,42.805,6.029,4330,1995,194.223,59.398,13.289
2017-11-28T03:42:55,42.805,6.029,4330,1995,194.210,59.395,13.290
2017-11-28T03:45:55,42.805,6.029,4330,1995,194.098,59.359,13.289
2017-11-28T03:48:55,42.805,6.029,4330,1995,193.895,59.298,13.290
2017-11-28T03:51:55,42.805,6.029,4330,1995,193.773,59.261,13.290
2017-11-28T03:54:55,42.805,6.029,4330,1995,193.641,59.221,13.291
2017-11-28T03:57:55,42.805,6.029,4330,1995,193.423,59.154,13.290
2017-11-28T04:00:55,42.805,6.029,4330,1995,193.144,59.069,13.290
2017-11-28T04:03:55,42.805,6.029,4330,1995,192.993,59.022,13.290
2017-11-28T04:06:55,42.805,6.029,4330,1995,193.047,59.041,13.291
2017-11-28T04:09:55,42.805,6.029,4330,1995,192.988,59.021,13.290
2017-11-28T04:12:55,42.805,6.029,4330,1995,193.181,59.078,13.289
2017-11-28T04:15:55,42.805,6.029,4330,1995,193.500,59.175,13.288
2017-11-28T04:18:55,42.805,6.029,4330,1995,193.934,59.307,13.287
2017-11-28T04:21:55,42.805,6.029,4330,1995,194.218,59.394,13.287
2017-11-28T04:24:55,42.805,6.029,4330,1995,194.258,59.406,13.287
2017-11-28T04:27:55,42.805,6.029,4330,1995,194.186,59.384,13.288
2017-11-28T04:30:55,42.805,6.029,4330,1995,194.254,59.405,13.288
2017-11-28T04:33:55,42.805,6.029,4330,1995,194.329,59.428,13.288
2017-11-28T04:36:55,42.805,6.029,4330,1995,194.445,59.463,13.287
2017-11-28T04:39:55,42.805,6.029,4330,1995,194.632,59.520,13.287
2017-11-28T04:42:55,42.805,6.029,4330,1995,194.674,59.533,13.287
2017-11-28T04:45:55,42.805,6.029,4330,1995,194.825,59.579,13.287
2017-11-28T04:48:55,42.805,6.029,4330,1995,194.908,59.604,13.287
2017-11-28T04:51:55,42.805,6.029,4330,1995,194.943,59.615,13.287
2017-11-28T04:54:55,42.805,6.029,4330,1995,195.044,59.645,13.286
2017-11-28T04:57:55,42.805,6.029,4330,1995,195.291,59.720,13.286
2017-11-28T05:00:55,42.805,6.029,4330,1995,195.512,59.788,13.286
2017-11-28T05:03:55,42.805,6.029,4330,1995,195.729,59.855,13.287
2017-11-28T05:06:55,42.805,6.029,4330,1995,195.643,59.828,13.286
2017-11-28T05:09:55,42.805,6.029,4330,1995,195.612,59.819,13.286
2017-11-28T05:12:55,42.805,6.029,4330,1995,195.827,59.884,13.286
2017-11-28T05:15:55,42.805,6.029,4330,1995,195.870,59.898,13.286
2017-11-28T05:18:55,42.805,6.029,4330,1995,195.731,59.855,13.286
2017-11-28T05:21:55,42.805,6.029,4330,1995,195.569,59.805,13.286
2017-11-28T05:24:55,42.805,6.029,4330,1995,195.687,59.841,13.286
2017-11-28T05:27:55,42.805,6.029,4330,1995,195.790,59.873,13.286
2017-11-28T05:30:55,42.805,6.029,4330,1995,195.838,59.887,13.286
2017-11-28T05:33:55,42.805,6.029,4330,1995,195.640,59.827,13.286
2017-11-28T05:36:55,42.805,6.029,4330,1995,195.516,59.789,13.286
2017-11-28T05:39:55,42.805,6.029,4330,1995,195.641,59.827,13.286
2017-11-28T05:42:55,42.805,6.029,4330,1995,195.842,59.889,13.286
2017-11-28T05:45:55,42.805,6.029,4330,1995,195.777,59.869,13.286
2017-11-28T05:48:55,42.805,6.029,4330,1995,195.733,59.855,13.286
2017-11-28T05:51:55,42.805,6.029,4330,1995,195.928,59.915,13.286
2017-11-28T05:54:55,42.805,6.029,4330,1995,195.926,59.914,13.286
2017-11-28T05:57:55,42.805,6.029,4330,1995,195.944,59.920,13.286
2017-11-28T06:00:55,42.805,6.029,4330,1995,195.763,59.864,13.286
2017-11-28T06:03:55,42.805,6.029,4330,1995,196.045,59.951,13.286
2017-11-28T06:06:55,42.805,6.029,4330,1995,196.039,59.949,13.286
2017-11-28T06:09:55,42.805,6.029,4330,1995,195.952,59.922,13.286
2017-11-28T06:12:55,42.805,6.029,4330,1995,195.774,59.868,13.286
2017-11-28T06:15:55,42.805,6.029,4330,1995,195.899,59.906,13.286
2017-11-28T06:18:55,42.805,6.029,4330,1995,195.942,59.919,13.286
2017-11-28T06:21:55,42.805,6.029,4330,1995,196.151,59.983,13.286
2017-11-28T06:24:55,42.805,6.029,4330,1995,196.079,59.961,13.286
2017-11-28T06:27:55,42.805,6.029,4330,1995,196.119,59.973,13.286
2017-11-28T06:30:55,42.805,6.029,4330,1995,196.224,60.005,13.286
2017-11-28T06:33:55,42.805,6.029,4330,1995,196.150,59.982,13.286
2017-11-28T06:36:55,42.805,6.029,4330,1995,196.240,60.010,13.286
2017-11-28T06:39:55,42.805,6.029,4330,1995,196.216,60.002,13.286
2017-11-28T06:42:55,42.805,6.029,4330,1995,196.240,60.010,13.286
2017-11-28T06:45:55,42.805,6.029,4330,1995,196.218,60.003,13.286
2017-11-28T06:48:55,42.805,6.029,4330,1995,196.197,59.997,13.286
2017-11-28T06:51:55,42.805,6.029,4330,1995,196.138,59.979,13.286
2017-11-28T06:54:55,42.805,6.029,4330,1995,196.207,60.000,13.286
2017-11-28T06:57:55,42.805,6.029,4330,1995,196.269,60.019,13.286
2017-11-28T07:00:55,42.805,6.029,4330,1995,196.235,60.008,13.286
2017-11-28T07:03:55,42.805,6.029,4330,1995,196.253,60.014,13.286
2017-11-28T07:06:55,42.805,6.029,4330,1995,196.255,60.014,13.286
2017-11-28T07:09:55,42.805,6.029,4330,1995,196.214,60.002,13.286
2017-11-28T07:12:55,42.805,6.029,4330,1995,196.104,59.968,13.286
2017-11-28T07:15:55,42.805,6.029,4330,1995,196.253,60.014,13.286
2017-11-28T07:18:55,42.805,6.029,4330,1995,196.121,59.974,13.286
2017-11-28T07:21:55,42.805,6.029,4330,1995,196.196,59.996,13.286
2017-11-28T07:24:55,42.805,6.029,4330,1995,196.245,60.011,13.286
2017-11-28T07:27:55,42.805,6.029,4330,1995,196.301,60.029,13.286
2017-11-28T07:30:55,42.805,6.029,4330,1995,196.353,60.044,13.286
2017-11-28T07:33:55,42.805,6.029,4330,1995,196.311,60.032,13.286
2017-11-28T07:36:55,42.805,6.029,4330,1995,196.357,60.046,13.286
2017-11-28T07:39:55,42.805,6.029,4330,1995,196.430,60.068,13.286
2017-11-28T07:42:55,42.805,6.029,4330,1995,196.401,60.059,13.286
2017-11-28T07:45:55,42.805,6.029,4330,1995,196.487,60.085,13.286
2017-11-28T07:48:55,42.805,6.029,4330,1995,196.460,60.077,13.286
2017-11-28T07:51:55,42.805,6.029,4330,1995,196.605,60.121,13.286
2017-11-28T07:54:55,42.805,6.029,4330,1995,196.577,60.113,13.286
2017-11-28T07:57:55,42.805,6.029,4330,1995,196.645,60.134,13.286
2017-11-28T08:00:55,42.805,6.029,4330,1995,196.645,60.134,13.286
2017-11-28T08:03:55,42.805,6.029,4330,1995,196.741,60.163,13.286
2017-11-28T08:06:55,42.805,6.029,4330,1995,196.697,60.149,13.286
2017-11-28T08:09:55,42.805,6.029,4330,1995,196.754,60.167,13.286
2017-11-28T08:12:55,42.805,6.029,4330,1995,196.720,60.156,13.286
2017-11-28T08:15:55,42.805,6.029,4330,1995,196.785,60.176,13.285
2017-11-28T08:18:55,42.805,6.029,4330,1995,196.794,60.179,13.286
2017-11-28T08:21:55,42.805,6.029,4330,1995,196.563,60.108,13.286
2017-11-28T08:24:55,42.805,6.029,4330,1995,196.669,60.141,13.286
2017-11-28T08:27:55,42.805,6.029,4330,1995,196.510,60.092,13.286
2017-11-28T08:30:55,42.805,6.029,4330,1995,196.516,60.094,13.286
2017-11-28T08:33:55,42.805,6.029,4330,1995,196.622,60.126,13.285
2017-11-28T08:36:55,42.805,6.029,4330,1995,196.642,60.132,13.286
2017-11-28T08:39:55,42.805,6.029,4330,1995,196.609,60.122,13.286
2017-11-28T08:42:55,42.805,6.029,4330,1995,196.603,60.121,13.286
2017-11-28T08:45:55,42.805,6.029,4330,1995,196.582,60.114,13.286
2017-11-28T08:48:55,42.805,6.029,4330,1995,196.626,60.128,13.286
2017-11-28T08:51:55,42.805,6.029,4330,1995,196.639,60.132,13.286
2017-11-28T08:54:55,42.805,6.029,4330,1995,196.470,60.080,13.286
2017-11-28T08:57:55,42.805,6.029,4330,1995,196.399,60.058,13.286
2017-11-28T09:00:55,42.805,6.029,4330,1995,196.330,60.037,13.286
2017-11-28T09:03:55,42.805,6.029,4330,1995,196.349,60.043,13.285
2017-11-28T09:06:55,42.805,6.029,4330,1995,196.442,60.072,13.286
2017-11-28T09:09:55,42.805,6.029,4330,1995,196.490,60.086,13.286
2017-11-28T09:12:55,42.805,6.029,4330,1995,196.524,60.096,13.286
2017-11-28T09:15:55,42.805,6.029,4330,1995,196.501,60.089,13.285
2017-11-28T09:18:55,42.805,6.029,4330,1995,196.514,60.094,13.286
2017-11-28T09:21:55,42.805,6.029,4330,1995,196.529,60.098,13.286
2017-11-28T09:24:55,42.805,6.029,4330,1995,196.526,60.097,13.286
2017-11-28T09:27:55,42.805,6.029,4330,1995,196.515,60.094,13.286
2017-11-28T09:30:55,42.805,6.029,4330,1995,196.495,60.088,13.286
2017-11-28T09:33:55,42.805,6.029,4330,1995,196.504,60.090,13.285
2017-11-28T09:36:55,42.805,6.029,4330,1995,196.497,60.088,13.286
2017-11-28T09:39:55,42.805,6.029,4330,1995,196.610,60.123,13.286
2017-11-28T09:42:55,42.805,6.029,4330,1995,196.614,60.124,13.285
2017-11-28T09:45:55,42.805,6.029,4330,1995,196.663,60.139,13.285
2017-11-28T09:48:55,42.805,6.029,4330,1995,196.654,60.136,13.286
2017-11-28T09:51:55,42.805,6.029,4330,1995,196.586,60.116,13.286
2017-11-28T09:54:55,42.805,6.029,4330,1995,196.647,60.134,13.285
2017-11-28T09:57:55,42.805,6.029,4330,1995,196.551,60.105,13.285
2017-11-28T10:00:55,42.805,6.029,4330,1995,196.612,60.123,13.285
2017-11-28T10:03:55,42.805,6.029,4330,1995,196.645,60.133,13.285
2017-11-28T10:06:55,42.805,6.029,4330,1995,196.621,60.126,13.285
2017-11-28T10:09:55,42.805,6.029,4330,1995,196.627,60.128,13.285
2017-11-28T10:12:55,42.805,6.029,4330,1995,196.641,60.132,13.285
2017-11-28T10:15:55,42.805,6.029,4330,1995,196.653,60.136,13.285
2017-11-28T10:18:55,42.805,6.029,4330,1995,196.672,60.142,13.285
2017-11-28T10:21:55,42.805,6.029,4330,1995,196.617,60.125,13.285
2017-11-28T10:24:55,42.805,6.029,4330,1995,196.680,60.144,13.285
2017-11-28T10:27:55,42.805,6.029,4330,1995,196.667,60.140,13.285
2017-11-28T10:30:55,42.805,6.029,4330,1995,196.668,60.141,13.286
2017-11-28T10:33:55,42.805,6.029,4330,1995,196.648,60.134,13.286
2017-11-28T10:36:55,42.805,6.029,4330,1995,196.679,60.144,13.286
2017-11-28T10:39:55,42.805,6.029,4330,1995,196.711,60.154,13.286
2017-11-28T10:42:55,42.805,6.029,4330,1995,196.723,60.158,13.286
2017-11-28T10:45:55,42.805,6.029,4330,1995,196.668,60.140,13.285
2017-11-28T10:48:55,42.805,6.029,4330,1995,196.724,60.157,13.285
2017-11-28T10:51:55,42.805,6.029,4330,1995,196.736,60.161,13.286
2017-11-28T10:54:55,42.805,6.029,4330,1995,196.770,60.172,13.286
2017-11-28T10:57:55,42.805,6.029,4330,1995,196.788,60.177,13.285
2017-11-28T11:00:55,42.805,6.029,4330,1995,196.823,60.188,13.286
2017-11-28T11:03:55,42.805,6.029,4330,1995,196.765,60.170,13.286
2017-11-28T11:06:55,42.805,6.029,4330,1995,196.744,60.164,13.285
2017-11-28T11:09:55,42.805,6.029,4330,1995,196.784,60.176,13.286
2017-11-28T11:12:55,42.805,6.029,4330,1995,196.884,60.206,13.285
2017-11-28T11:15:55,42.805,6.029,4330,1995,196.885,60.207,13.285
2017-11-28T11:18:55,42.805,6.029,4330,1995,196.916,60.216,13.286
2017-11-28T11:21:55,42.805,6.029,4330,1995,196.940,60.224,13.285
2017-11-28T11:24:55,42.805,6.029,4330,1995,196.936,60.223,13.285
2017-11-28T11:27:55,42.805,6.029,4330,1995,196.975,60.234,13.286
2017-11-28T11:30:55,42.805,6.029,4330,1995,196.932,60.221,13.285
2017-11-28T11:33:55,42.805,6.029,4330,1995,196.924,60.219,13.286
2017-11-28T11:36:55,42.805,6.029,4330,1995,196.995,60.240,13.286
2017-11-28T11:39:55,42.805,6.029,4330,1995,197.041,60.255,13.285
2017-11-28T11:42:55,42.805,6.029,4330,1995,197.225,60.311,13.285
2017-11-28T11:45:55,42.805,6.029,4330,1995,197.264,60.323,13.286
2017-11-28T11:48:55,42.805,6.029,4330,1995,197.432,60.374,13.285
2017-11-28T11:51:55,42.805,6.029,4330,1995,197.569,60.416,13.285
2017-11-28T11:54:55,42.805,6.029,4330,1995,197.614,60.430,13.285
2017-11-28T11:57:55,42.805,6.029,4330,1995,197.665,60.445,13.285
2017-11-28T12:00:55,42.805,6.029,4330,1995,197.689,60.453,13.285
2017-11-28T12:03:55,42.805,6.029,4330,1995,197.655,60.442,13.285
2017-11-28T12:06:55,42.805,6.029,4330,1995,197.714,60.460,13.285
2017-11-28T12:09:55,42.805,6.029,4330,1995,197.667,60.446,13.285
2017-11-28T12:12:55,42.805,6.029,4330,1995,197.642,60.438,13.285
2017-11-28T12:15:55,42.805,6.029,4330,1995,197.767,60.476,13.285
2017-11-28T12:18:55,42.805,6.029,4330,1995,197.777,60.479,13.285
2017-11-28T12:21:55,42.805,6.029,4330,1995,197.795,60.485,13.285
2017-11-28T12:24:55,42.805,6.029,4330,1995,197.836,60.497,13.285
2017-11-28T12:27:55,42.805,6.029,4330,1995,197.859,60.504,13.285
2017-11-28T12:30:55,42.805,6.029,4330,1995,197.896,60.516,13.285
2017-11-28T12:33:55,42.805,6.029,4330,1995,197.961,60.536,13.285
2017-11-28T12:36:55,42.805,6.029,4330,1995,198.005,60.549,13.285
2017-11-28T12:39:55,42.805,6.029,4330,1995,198.003,60.549,13.285
2017-11-28T12:42:55,42.805,6.029,4330,1995,197.950,60.532,13.285
2017-11-28T12:45:55,42.805,6.029,4330,1995,197.924,60.525,13.286
2017-11-28T12:48:55,42.805,6.029,4330,1995,197.871,60.508,13.285
2017-11-28T12:51:55,42.805,6.029,4330,1995,197.967,60.538,13.285
2017-11-28T12:54:55,42.805,6.029,4330,1995,197.937,60.528,13.285
2017-11-28T12:57:55,42.805,6.029,4330,1995,197.829,60.495,13.285
2017-11-28T13:00:55,42.805,6.029,4330,1995,197.755,60.473,13.285
2017-11-28T13:03:55,42.805,6.029,4330,1995,197.742,60.469,13.285
2017-11-28T13:06:55,42.805,6.029,4330,1995,197.786,60.482,13.285
2017-11-28T13:09:55,42.805,6.029,4330,1995,197.751,60.472,13.285
2017-11-28T13:12:55,42.805,6.029,4330,1995,197.757,60.473,13.285
2017-11-28T13:15:55,42.805,6.029,4330,1995,197.885,60.513,13.286
2017-11-28T13:18:55,42.805,6.029,4330,1995,197.898,60.517,13.286
2017-11-28T13:21:55,42.805,6.029,4330,1995,198.000,60.549,13.286
2017-11-28T13:24:55,42.805,6.029,4330,1995,197.990,60.545,13.286
2017-11-28T13:27:55,42.805,6.029,4330,1995,197.912,60.521,13.286
2017-11-28T13:30:55,42.805,6.029,4330,1995,197.999,60.549,13.286
2017-11-28T13:33:55,42.805,6.029,4330,1995,197.959,60.536,13.286
2017-11-28T13:36:55,42.805,6.029,4330,1995,197.944,60.531,13.286
2017-11-28T13:39:55,42.805,6.029,4330,1995,197.929,60.526,13.286
2017-11-28T13:42:55,42.805,6.029,4330,1995,197.990,60.545,13.286
2017-11-28T13:45:55,42.805,6.029,4330,1995,197.930,60.527,13.286
2017-11-28T13:48:55,42.805,6.029,4330,1995,197.868,60.508,13.286
2017-11-28T13:51:55,42.805,6.029,4330,1995,197.791,60.484,13.286
2017-11-28T13:54:55,42.805,6.029,4330,1995,197.847,60.501,13.286
2017-11-28T13:57:55,42.805,6.029,4330,1995,197.822,60.494,13.286
2017-11-28T14:00:55,42.805,6.029,4330,1995,197.797,60.486,13.286
2017-11-28T14:03:55,42.805,6.029,4330,1995,197.748,60.471,13.286
2017-11-28T14:06:55,42.805,6.029,4330,1995,197.710,60.459,13.286
2017-11-28T14:09:55,42.805,6.029,4330,1995,197.704,60.458,13.286
2017-11-28T14:12:55,42.805,6.029,4330,1995,197.634,60.437,13.286
2017-11-28T14:15:55,42.805,6.029,4330,1995,197.622,60.433,13.286
2017-11-28T14:18:55,42.805,6.029,4330,1995,197.573,60.418,13.286
2017-11-28T14:21:55,42.805,6.029,4330,1995,197.527,60.404,13.286
2017-11-28T14:24:55,42.805,6.029,4330,1995,197.529,60.405,13.286
2017-11-28T14:27:55,42.805,6.029,4330,1995,197.519,60.401,13.286
2017-11-28T14:30:55,42.805,6.029,4330,1995,197.482,60.390,13.286
2017-11-28T14:33:55,42.805,6.029,4330,1995,197.539,60.408,13.286
2017-11-28T14:36:55,42.805,6.029,4330,1995,197.508,60.398,13.286
2017-11-28T14:39:55,42.805,6.029,4330,1995,197.540,60.408,13.286
2017-11-28T14:42:55,42.805,6.029,4330,1995,197.500,60.396,13.286
2017-11-28T14:45:55,42.805,6.029,4330,1995,197.520,60.402,13.286
2017-11-28T14:48:55,42.805,6.029,4330,1995,197.468,60.386,13.286
2017-11-28T14:51:55,42.805,6.029,4330,1995,197.484,60.391,13.286
2017-11-28T14:54:55,42.805,6.029,4330,1995,197.410,60.368,13.286
2017-11-28T14:57:55,42.805,6.029,4330,1995,197.421,60.371,13.286
2017-11-28T15:00:55,42.805,6.029,4330,1995,197.390,60.362,13.286
2017-11-28T15:03:55,42.805,6.029,4330,1995,197.388,60.362,13.286
2017-11-28T15:06:55,42.805,6.029,4330,1995,197.354,60.351,13.286
2017-11-28T15:09:55,42.805,6.029,4330,1995,197.337,60.346,13.286
2017-11-28T15:12:55,42.805,6.029,4330,1995,197.295,60.333,13.286
2017-11-28T15:15:55,42.805,6.029,4330,1995,197.332,60.344,13.286
2017-11-28T15:18:55,42.805,6.029,4330,1995,197.308,60.338,13.287
2017-11-28T15:21:55,42.805,6.029,4330,1995,197.333,60.344,13.286
2017-11-28T15:24:55,42.805,6.029,4330,1995,197.289,60.331,13.286
2017-11-28T15:27:55,42.805,6.029,4330,1995,197.221,60.310,13.286
2017-11-28T15:30:55,42.805,6.029,4330,1995,197.185,60.299,13.286
2017-11-28T15:33:55,42.805,6.029,4330,1995,197.129,60.283,13.286
2017-11-28T15:36:55,42.805,6.029,4330,1995,197.093,60.272,13.287
2017-11-28T15:39:55,42.805,6.029,4330,1995,197.060,60.262,13.287
2017-11-28T15:42:55,42.805,6.029,4330,1995,197.062,60.262,13.286
2017-11-28T15:45:55,42.805,6.029,4330,1995,196.994,60.241,13.286
2017-11-28T15:48:55,42.805,6.029,4330,1995,197.076,60.267,13.287
2017-11-28T15:51:55,42.805,6.029,4330,1995,196.950,60.228,13.287
2017-11-28T15:54:55,42.805,6.029,4330,1995,196.913,60.217,13.287
2017-11-28T15:57:54,42.805,6.029,4330,1995,196.937,60.224,13.287
2017-11-28T16:00:54,42.805,6.029,4330,1995,196.942,60.226,13.286
2017-11-28T16:03:54,42.805,6.029,4330,1995,197.022,60.250,13.286
2017-11-28T16:06:54,42.805,6.029,4330,1995,196.999,60.243,13.287
2017-11-28T16:09:54,42.805,6.029,4330,1995,197.043,60.256,13.286
2017-11-28T16:12:54,42.805,6.029,4330,1995,197.001,60.244,13.286
2017-11-28T16:15:54,42.805,6.029,4330,1995,196.968,60.234,13.287
2017-11-28T16:18:54,42.805,6.029,4330,1995,196.959,60.230,13.286
2017-11-28T16:21:54,42.805,6.029,4330,1995,196.964,60.233,13.287
2017-11-28T16:24:54,42.805,6.029,4330,1995,196.948,60.228,13.287
2017-11-28T16:27:54,42.805,6.029,4330,1995,196.907,60.215,13.286
2017-11-28T16:30:54,42.805,6.029,4330,1995,196.769,60.174,13.287
2017-11-28T16:33:54,42.805,6.029,4330,1995,196.666,60.142,13.287
2017-11-28T16:36:54,42.805,6.029,4330,1995,196.664,60.142,13.287
2017-11-28T16:39:54,42.805,6.029,4330,1995,196.764,60.172,13.287
2017-11-28T16:42:54,42.805,6.029,4330,1995,196.639,60.134,13.287
2017-11-28T16:45:54,42.805,6.029,4330,1995,196.602,60.123,13.287
2017-11-28T16:48:54,42.805,6.029,4330,1995,196.572,60.114,13.288
2017-11-28T16:51:54,42.805,6.029,4330,1995,196.505,60.092,13.287
2017-11-28T16:54:54,42.805,6.029,4330,1995,196.469,60.082,13.288
2017-11-28T16:57:54,42.805,6.029,4330,1995,196.480,60.085,13.287
2017-11-28T17:00:54,42.805,6.029,4330,1995,196.442,60.073,13.287
2017-11-28T17:03:54,42.805,6.029,4330,1995,196.355,60.047,13.287
2017-11-28T17:06:54,42.805,6.029,4330,1995,196.386,60.057,13.288
2017-11-28T17:09:54,42.805,6.029,4330,1995,196.279,60.023,13.287
2017-11-28T17:12:54,42.805,6.029,4330,1995,196.331,60.039,13.286
2017-11-28T17:15:54,42.805,6.029,4330,1995,196.336,60.041,13.287
2017-11-28T17:18:54,42.805,6.029,4330,1995,196.298,60.029,13.287
2017-11-28T17:21:54,42.805,6.029,4330,1995,196.162,59.988,13.288
2017-11-28T17:24:54,42.805,6.029,4330,1995,196.093,59.966,13.287
2017-11-28T17:27:54,42.805,6.029,4330,1995,196.157,59.986,13.287
2017-11-28T17:30:54,42.805,6.029,4330,1995,196.136,59.980,13.287
2017-11-28T17:33:54,42.805,6.029,4330,1995,196.163,59.988,13.287
2017-11-28T17:36:54,42.805,6.029,4330,1995,195.931,59.918,13.287
2017-11-28T17:39:54,42.805,6.029,4330,1995,195.884,59.903,13.287
2017-11-28T17:42:54,42.805,6.029,4330,1995,195.919,59.914,13.288
2017-11-28T17:45:54,42.805,6.029,4330,1995,195.868,59.898,13.287
2017-11-28T17:48:54,42.805,6.029,4330,1995,195.840,59.889,13.287
2017-11-28T17:51:54,42.805,6.029,4330,1995,195.747,59.863,13.288
2017-11-28T17:54:54,42.805,6.029,4330,1995,195.666,59.842,13.291
2017-11-28T17:57:54,42.805,6.029,4330,1995,195.729,59.856,13.288
2017-11-28T18:00:54,42.805,6.029,4330,1995,195.727,59.856,13.288
2017-11-28T18:03:54,42.805,6.029,4330,1995,195.800,59.879,13.288
2017-11-28T18:06:54,42.805,6.029,4330,1995,195.888,59.907,13.289